This is the latest recevied weather packets stored in our database for station/object W4FXD. If no packets are shown the sender has not sent any weather packets the latest 10 day(s).
| Time | Temp. | Humidity | Pressure | Rain* | Wind** | Luminosity | Snow |
|---|---|---|---|---|---|---|---|
| 1778195351 | 16.67° C | 74% | 1013.4 hPa | 0 mm | - | 38 W/m² | - |
| 1778195049 | 17.22° C | 70% | 1013.3 hPa | 0 mm | - | 43 W/m² | - |
| 1778194749 | 17.22° C | 65% | 1013.4 hPa | 0 mm | - | 49 W/m² | - |
| 1778194445 | 17.22° C | 66% | 1013.1 hPa | 0 mm | - | 50 W/m² | - |
| 1778194141 | 17.22° C | 67% | 1013.3 hPa | 0 mm | - | 41 W/m² | - |
| 1778193837 | 17.22° C | 65% | 1013.2 hPa | 0 mm | - | 52 W/m² | - |
| 1778193534 | 17.22° C | 66% | 1013.4 hPa | 0 mm | - | 56 W/m² | - |
| 1778193230 | 17.22° C | 72% | 1013.4 hPa | 0 mm | - | 66 W/m² | - |
| 1778192927 | 17.22° C | 66% | 1013.4 hPa | 0 mm | - | 44 W/m² | - |
| 1778192623 | 17.22° C | 66% | 1013.6 hPa | 0 mm | - | 39 W/m² | - |
| 1778192321 | 17.22° C | 66% | 1013.7 hPa | 0 mm | - | 53 W/m² | - |
| 1778192017 | 17.22° C | 66% | 1013.6 hPa | 0 mm | - | 42 W/m² | - |
| 1778191713 | 17.22° C | 65% | 1013.2 hPa | 0 mm | - | 47 W/m² | - |
| 1778191412 | 17.22° C | 63% | 1013.3 hPa | 0 mm | - | 43 W/m² | - |
| 1778191108 | 17.22° C | 64% | 1013.4 hPa | 0 mm | - | 59 W/m² | - |
| 1778190805 | 17.22° C | 68% | 1013.4 hPa | 0 mm | - | 45 W/m² | - |
| 1778190502 | 17.22° C | 66% | 1013.2 hPa | 0 mm | - | 57 W/m² | - |
| 1778190200 | 17.22° C | 67% | 1013.2 hPa | 0 mm | - | 57 W/m² | - |
| 1778189894 | 17.22° C | 66% | 1013.1 hPa | 0 mm | - | 49 W/m² | - |
| 1778189591 | 17.22° C | 67% | 1013 hPa | 0 mm | - | 53 W/m² | - |
| 1778189288 | 17.22° C | 66% | 1013.3 hPa | 0 mm | - | 55 W/m² | - |
| 1778188984 | 17.22° C | 67% | 1013.1 hPa | 0 mm | - | 65 W/m² | - |
| 1778188681 | 17.22° C | 66% | 1013.1 hPa | 0 mm | - | 51 W/m² | - |
| 1778188377 | 17.22° C | 65% | 1013 hPa | 0 mm | - | 50 W/m² | - |
| 1778188074 | 17.22° C | 67% | 1012.9 hPa | 0 mm | - | 54 W/m² | - |
* Rain latest hour (hover to see other rain measurements)
** Current wind speed in m/s (hover to see current wind gust speed)